THOR ABLESTAR DEB, 136

Orbit data source: Space-Track

THOR ABLESTAR DEB, 136 is space debris in LEO originally from a launch on Thu, 29 Jun 1961 UTC launched from the Air Force Eastern Test Range (AFETR). Debris objects in space refer to the collection of defunct objects orbiting the Earth. Examples of debris include non-operational satellites, rocket bodies, and fragments generated from explosions, collisions, or faulty payload assembly.

Loading next visibility...
Identifier
136, 1961-015W
Orbit
LEO
Country
Flag of USUS
Related business
Manufacturer
Unknown
Mission
Spacecraft
Bus & Motor
Unknown
Mass
Unknown
Launch date (UTC)
1961-06-29 (65 years ago)
Launch vehicle
Unknown
Launch site
Air Force Eastern Test Range (AFETR)
Object type
Payload
Rocket body
Debris
Shape & HBR
Unknown shape, 0.4 m
Radar Cross Section
Small (<0.1 m²)

Expand to show TLE details & history
Last TLE update: 11 hours ago

TLE from 11 hours ago
0 THOR ABLESTAR DEB
1 00136U 61015W   26123.46660431  .00001714  00000-0  54108-3 0  9991
2 00136  67.5300  36.1075 0039304  72.3975 288.1423 14.42011106350317
Epoch: 2026-05-03T11:11Z
TLE epoch observation values (Epoch: 2026-05-03T11:11:54.612Z)
Latitude
-0.00002°
Longitude
6.7602°
Altitude
745.417 km
Speed
7.487 km/s
True Right ascension
02h 24m 25s
True Declination
0° 00' 00"
Sunlit
Object was in daylight at epoch
Visualization orbit readout
Latitude
Unknown
Longitude
Unknown
Altitude
Unknown
Speed
Unknown
Apparent Right ascension
Unknown
Apparent Declination
Unknown
Sunlit
N/A
Visualization observer readout
Local Sidereal Time
05:41:47
Azimuth
Unknown
Elevation
Unknown
Doppler factor
Unknown
Orbital elements
Apogee altitude
778.148 km
Perigee altitude
722.114 km
Semi-major axis
7,128.268 km
Eccentricity
0.00393
Inclination
67.53°
RAAN
36.1075°
Arg. of periapsis
72.3975°
True anomaly
287.71365°
Mean anomaly
288.1423°
Eccentric anomaly
287.92804°
Mean motion
3.60634 °/min
Orbital period
99.82 mins
BSTAR
0.00054108
Loading maneuver chart data...
Computing Atmospheric mass density...
Loading historical data...
Loading historical data...
Loading historical data...
Loading historical data...
Loading historical data...
Loading historical data...
Loading historical data...

Documentation

Showing up to 5 results
|